Location: Malanoce
(44.2500°N, 7.4667°E)
Time: 04:51:54
(UTC+00:00)

Cosmos 1656 Rocket - Pass Details

Date: 17 November 2025
Orbit: 791 x 846 km, 71.1° (Epoch: 09 December)

Event Time Altitude Azimuth Distance (km) Brightness Sun altitude
Rises 18:20:23 0° 199° (SSW) 3,322 7.1 -24.8°
Reaches altitude 10° 18:22:47 10° 198° (SSW) 2,402 6.3 -25.2°
Maximum altitude 18:28:17 79° 113° (ESE) 845 3.5 -26.2°
Enters shadow 18:28:30 78° 81° (E) 850 3.5 -26.2°
